New Castle, PA

11:44 AM EDT on August 17, 2017 (GMT -0400)
New Castle Municipal

Weather History for KUCP - August, 2013

Change the Weather History Date:

Friday, August 2, 2013

  Actual Average Record
Temperature  
Mean Temperature 64 °F -  
Max Temperature 74 °F 83 °F 98 °F (1933)
Min Temperature 53 °F 57 °F 46 °F (1959)
Degree Days  
Heating Degree Days 2    
Growing Degree Days 14 (Base 50)    
Moisture  
Dew Point 57 °F    
Average Humidity 90    
Maximum Humidity 100    
Minimum Humidity 51    
Precipitation  
Precipitation 0.09 in - - ()
Sea Level Pressure  
Sea Level Pressure 29.96 in    
Wind  
Wind Speed 1 mph (WSW)    
Max Wind Speed 10 mph    
Max Gust Speed -    
Visibility 4 miles    
Events Fog , Rain    
Averages and records for this station are not official NWS values.
T = Trace of Precipitation, MM = Missing Value Source: NWS Daily Summary

Daily Weather History Graph

Daily Weather History Graph

Search for Another Location

Airport or City:

Trip Planner

Search our weather history database for the weather conditions in past years. The results will help you decide how hot, cold, wet, or windy it might be!

Date:

Astronomy

Aug. 02, 2013 Rise Set
Actual Time 6:18 AM EDT 8:36 PM EDT
Civil Twilight 5:47 AM EDT 9:07 PM EDT
Nautical Twilight 5:09 AM EDT 9:44 PM EDT
Astronomical Twilight 4:27 AM EDT 10:26 PM EDT
Moon 2:38 AM EDT (8/2) 5:33 PM EDT (8/2)
Length of Visible Light 15h 19m
Length of Day
14h 17m
Waning Crescent, 16% of the Moon is Illuminated
Aug 2
Waning Crescent
Aug 6
New
Aug 14
First Quarter
Aug 20
Full
Aug 28
Last Quarter

Hourly Weather History & Observations

Time (EDT) Temp. Dew Point Humidity Pressure Visibility Wind Dir Wind Speed Gust Speed Precip Events Conditions
12:56 AM 57.9 °F 56.8 °F 96% 29.98 in 4.0 mi Calm Calm - N/A   Clear
1:08 AM 57.2 °F 57.2 °F 100% 29.95 in 1.8 mi Calm Calm - N/A   Clear
1:18 AM 57.2 °F 57.2 °F 100% 29.94 in 3.0 mi Calm Calm - N/A   Clear
1:24 AM 57.2 °F 57.2 °F 100% 29.94 in 1.8 mi Calm Calm - N/A   Clear
1:26 AM 57.2 °F 57.2 °F 100% 29.94 in 1.0 mi Calm Calm - N/A   Clear
1:28 AM 57.2 °F 55.4 °F 94% 29.94 in 0.5 mi Calm Calm - N/A Fog Fog
1:47 AM 57.2 °F 57.2 °F 100% 29.94 in 0.2 mi Calm Calm - N/A Fog Fog
1:56 AM 56.8 °F 55.9 °F 97% 29.97 in 0.2 mi Calm Calm - N/A Fog Fog
2:10 AM 55.4 °F 55.4 °F 100% 29.94 in 0.8 mi Calm Calm - N/A   Clear
2:12 AM 55.4 °F 55.4 °F 100% 29.94 in 1.2 mi Calm Calm - N/A   Clear
2:19 AM 57.2 °F 57.2 °F 100% 29.94 in 0.8 mi Calm Calm - N/A   Clear
2:28 AM 55.4 °F 55.4 °F 100% 29.94 in 1.2 mi Calm Calm - N/A   Clear
2:30 AM 55.4 °F 55.4 °F 100% 29.94 in 2.0 mi Calm Calm - N/A   Clear
2:38 AM 55.4 °F 55.4 °F 100% 29.94 in 3.0 mi Calm Calm - N/A   Clear
2:56 AM 54.9 °F 54.9 °F 100% 29.97 in 3.0 mi Calm Calm - N/A   Clear
3:04 AM 55.4 °F 55.4 °F 100% 29.94 in 1.2 mi Calm Calm - N/A   Clear
3:06 AM 55.4 °F 55.4 °F 100% 29.94 in 0.8 mi Calm Calm - N/A   Clear
3:19 AM 55.4 °F 55.4 °F 100% 29.94 in 1.2 mi Calm Calm - N/A   Clear
3:22 AM 55.4 °F 55.4 °F 100% 29.93 in 2.5 mi Calm Calm - N/A   Clear
3:29 AM 55.4 °F 55.4 °F 100% 29.94 in 6.0 mi Calm Calm - N/A   Clear
3:56 AM 54.9 °F 54.9 °F 100% 29.96 in 3.0 mi Calm Calm - N/A   Clear
4:05 AM 55.4 °F 55.4 °F 100% 29.93 in 2.5 mi Calm Calm - N/A   Clear
4:12 AM 55.4 °F 55.4 °F 100% 29.93 in 1.0 mi Calm Calm - N/A   Clear
4:15 AM 55.4 °F 55.4 °F 100% 29.93 in 0.5 mi Calm Calm - N/A Fog Fog
4:24 AM 55.4 °F 55.4 °F 100% 29.93 in 0.2 mi Calm Calm - N/A Fog Fog
4:30 AM 55.4 °F 55.4 °F 100% 29.93 in 0.8 mi Calm Calm - N/A   Clear
4:33 AM 53.6 °F 53.6 °F 100% 29.93 in 1.2 mi Calm Calm - N/A   Clear
4:40 AM 55.4 °F 55.4 °F 100% 29.93 in 2.0 mi Calm Calm - N/A   Clear
4:45 AM 55.4 °F 55.4 °F 100% 29.93 in 1.2 mi Calm Calm - N/A   Clear
4:56 AM 54.0 °F 54.0 °F 100% 29.97 in 4.0 mi Calm Calm - N/A   Clear
5:26 AM 53.6 °F 53.6 °F 100% 29.94 in 1.5 mi Calm Calm - N/A   Clear
5:29 AM 53.6 °F 53.6 °F 100% 29.94 in 0.8 mi Calm Calm - N/A   Clear
5:36 AM 55.4 °F 53.6 °F 94% 29.95 in 1.2 mi Calm Calm - N/A   Clear
5:38 AM 55.4 °F 53.6 °F 94% 29.95 in 2.5 mi Calm Calm - N/A   Partly Cloudy
5:45 AM 53.6 °F 53.6 °F 100% 29.95 in 4.0 mi Calm Calm - N/A   Partly Cloudy
5:56 AM 54.9 °F 54.0 °F 97% 29.99 in 7.0 mi Calm Calm - N/A   Partly Cloudy
6:36 AM 53.6 °F 53.6 °F 100% 29.97 in 2.0 mi Calm Calm - N/A   Partly Cloudy
6:44 AM 55.4 °F 53.6 °F 94% 29.97 in 1.5 mi SW 4.6 mph - N/A   Clear
6:49 AM 55.4 °F 55.4 °F 100% 29.97 in 3.0 mi SSW 3.5 mph - N/A   Clear
6:56 AM 55.9 °F 55.9 °F 100% 30.01 in 5.0 mi SW 3.5 mph - N/A   Partly Cloudy
7:56 AM 61.0 °F 59.0 °F 93% 30.01 in 7.0 mi Calm Calm - N/A   Clear
8:56 AM 65.8 °F 61.0 °F 84% 30.02 in 10.0 mi WSW 4.6 mph - N/A   Clear
9:56 AM 70.9 °F 61.0 °F 71% 30.01 in 10.0 mi WSW 4.6 mph - N/A   Clear
10:56 AM 73.4 °F 57.2 °F 57% 29.99 in 10.0 mi WSW 10.4 mph - N/A   Scattered Clouds
11:56 AM 74.8 °F 57.9 °F 55% 30.03 in 10.0 mi West 10.4 mph - N/A   Partly Cloudy
12:56 PM 73.9 °F 54.9 °F 51% 30.03 in 10.0 mi West 10.4 mph - N/A   Scattered Clouds
1:56 PM 72.9 °F 57.9 °F 59% 30.05 in 10.0 mi WSW 8.1 mph - N/A   Partly Cloudy
2:56 PM 72.9 °F 55.9 °F 55% 30.03 in 10.0 mi WSW 8.1 mph - N/A   Clear
3:56 PM 73.9 °F 57.9 °F 57% 30.03 in 10.0 mi Variable 6.9 mph - N/A   Partly Cloudy
4:56 PM 73.9 °F 56.8 °F 55% 30.02 in 10.0 mi SW 8.1 mph - N/A   Partly Cloudy
5:56 PM 72.9 °F 56.8 °F 57% 30.00 in 10.0 mi SW 4.6 mph - N/A   Partly Cloudy
6:56 PM 70.9 °F 57.9 °F 63% 29.98 in 10.0 mi SSW 5.8 mph - N/A   Clear
7:56 PM 68.9 °F 59.0 °F 71% 29.98 in 10.0 mi Calm Calm - N/A   Clear
8:12 PM 69.8 °F 59.0 °F 68% 29.95 in 2.5 mi Calm Calm - N/A   Haze
8:20 PM 69.8 °F 59.0 °F 68% 29.94 in 10.0 mi Calm Calm - N/A   Clear
8:56 PM 68.0 °F 59.9 °F 75% 29.97 in 10.0 mi Calm Calm - N/A   Partly Cloudy
9:56 PM 64.9 °F 61.9 °F 90% 29.99 in 2.5 mi Calm Calm - 0.08 in Rain Heavy Rain
10:06 PM 64.4 °F 62.6 °F 94% 29.97 in 2.5 mi Calm Calm - 0.05 in Rain Light Rain
10:14 PM 64.4 °F 62.6 °F 94% 29.97 in 4.0 mi Calm Calm - 0.06 in Rain Light Rain
10:56 PM 64.4 °F 62.6 °F 94% 29.96 in 10.0 mi Calm Calm - N/A Rain Light Rain
11:56 PM 64.9 °F 63.9 °F 96% 29.98 in 10.0 mi West 4.6 mph - 0.01 in   Overcast